Helicity
32 2 8 4 2 -23 2 17 -8 -12 10 28 10 63 31 115 89 300 258 220 294 219 140 99 95 41 47 120 147 134 117 176 158 174 160 116 132 106 109 42 84 94 175 187 130 119 94 125 139 90 61 -23 29 40
39 24 18 8 5 -11 -2 7 19 19 -12 23 67 15 18 59 207 452 290 247 258 210 223 189 93 106 148 105 143 115 108 113 162 170 155 121 134 183 110 96 43 70 118 115 129 123 135 79 65 41 0 31 53 45
2 -3 9 -5 12 16 17 24 28 9 31 47 48 18 53 49 340 308 337 268 162 154 131 103 63 56 118 232 212 154 97 56 47 71 133 179 175 125 110 93 104 112 114 71 88 70 85 72 57 71 82 33 43 86
-5 -1 22 2 13 44 51 38 45 56 70 68 86 59 189 418 320 361 344 191 157 144 105 87 178 33 -32 109 351 297 146 41 72 93 131 129 123 111 64 66 78 88 61 84 68 61 68 108 67 74 48 53 67 88
130 13 27 49 24 38 49 68 70 56 54 30 228 245 302 245 245 283 256 211 182 231 116 134 84 91 -40 15 171 344 310 198 107 115 154 133 76 106 83 59 62 63 64 81 66 49 56 58 53 125 101 31 40 65
131 156 95 115 43 36 29 25 41 66 75 123 110 297 320 336 340 370 300 316 148 167 177 58 74 9 -29 -24 106 156 303 254 114 123 145 123 62 71 80 32 32 35 38 16 42 45 45 49 106 113 92 49 72 79
105 106 103 177 172 202 199 201 184 261 280 249 284 231 177 153 193 214 145 115 145 131 125 99 68 32 -28 31 -13 -95 89 150 125 108 143 132 127 154 111 58 59 53 31 35 39 89 61 63 69 79 79 76 95 63
140 127 116 107 130 121 137 127 121 188 198 193 221 253 266 224 101 82 76 81 70 152 59 51 87 56 17 -5 40 -5 27 60 99 123 129 95 117 165 95 50 23 22 45 64 72 97 64 73 66 64 80 108 94 98
101 124 132 126 150 177 183 136 161 180 195 216 219 187 240 207 134 90 49 28 111 159 90 23 60 43 -13 57 109 75 76 32 83 67 79 117 116 124 85 68 54 87 83 57 102 78 74 47 72 82 97 104 91 136
64 82 101 107 105 99 89 91 86 90 68 30 37 125 131 108 65 67 65 60 24 64 28 44 21 88 74 35 201 131 156 102 81 48 68 61 54 109 275 302 240 171 177 173 94 62 50 57 76 89 88 95 88 149
36 49 78 82 80 76 73 60 33 -17 17 158 147 135 98 11 38 45 1 1 19 50 5 25 -9 -37 140 227 178 133 119 106 34 63 75 50 101 158 203 231 234 164 128 133 141 122 105 99 84 74 71 95 135 171
15 55 78 88 76 20 -24 -19 31 48 57 85 57 33 89 106 93 70 26 35 55 84 23 35 -37 -18 23 164 94 72 70 121 56 104 150 153 209 264 242 216 214 219 224 187 172 152 116 94 72 65 86 103 207 384
30 59 41 -3 -16 -10 48 42 104 80 109 158 202 74 84 83 82 100 67 75 48 10 5 12 2 26 53 57 79 135 69 84 40 140 137 108 132 213 231 202 159 161 179 198 186 190 231 242 274 298 415 410 411 487
25 44 33 -10 35 32 -47 -15 101 85 66 28 27 -73 3 -14 35 46 73 73 52 42 12 39 -17 14 93 106 132 140 90 91 77 81 91 131 213 172 144 155 167 211 225 214 207 212 232 265 283 314 327 357 439 480
43 50 43 49 31 -17 -29 16 75 61 26 37 24 -27 -62 7 -33 -32 18 16 -14 14 69 129 15 24 54 59 101 109 74 101 152 139 131 198 153 101 92 103 125 146 126 123 110 115 155 170 195 213 218 223 250 249
18 43 23 -39 -27 -23 -51 -54 -29 3 -46 -16 -27 31 -12 -45 -6 39 35 15 7 25 43 32 20 26 37 74 93 120 98 135 119 148 167 174 121 98 96 113 136 149 162 152 154 169 204 224 225 232 251 255 253 247
25 14 -11 -31 -52 -76 -79 -88 -70 -59 -45 -19 -10 -10 52 58 52 89 125 137 146 108 72 53 34 60 72 60 104 159 166 168 156 135 142 152 159 154 151 163 176 178 167 166 178 202 201 193 223 274 265 203 185 179
-1 16 -1 -7 -19 -44 -8 23 24 37 35 51 58 73 91 136 178 194 136 174 80 83 104 47 77 140 143 161 179 167 153 147 99 105 124 149 139 172 196 213 225 227 232 239 234 225 222 222 221 180 156 130 134 132
8 5 -8 -4 10 23 33 97 95 81 110 153 97 111 151 144 140 156 120 112 137 142 162 112 80 169 144 92 93 100 117 133 108 103 115 151 191 189 195 210 218 236 240 226 224 229 234 245 201 159 142 135 138 114
59 2 7 46 76 25 30 54 86 75 117 125 130 22 18 29 32 77 150 45 16 58 109 109 91 74 71 73 61 58 65 59 49 107 157 165 170 190 214 187 180 174 189 213 235 214 189 200 193 172 159 149 131 144
58 73 75 84 56 -15 -8 7 31 96 121 89 112 -5 4 -16 103 135 162 199 281 142 81 25 28 41 57 70 71 69 96 99 120 117 125 155 156 158 163 168 172 173 181 174 169 177 180 161 135 118 122 128 137 137
32 58 3 94 -22 -47 -68 -31 -65 -50 -80 -70 -69 -60 -31 24 69 82 64 101 77 37 -24 -14 17 35 76 117 122 124 109 120 122 117 130 128 168 165 172 150 137 146 145 133 119 116 114 117 109 116 122 113 115 136
-8 -10 -6 25 -34 -78 -75 -36 -59 -69 -68 -51 -51 -19 0 20 14 -29 4 43 27 17 21 48 72 88 106 116 121 143 139 139 145 143 133 125 115 108 108 120 114 107 111 112 97 92 93 101 108 103 101 113 108 115
30 9 -9 -64 -83 -91 -99 -93 -70 -69 -75 -52 -35 -40 -21 -16 -21 -2 6 -12 4 17 56 84 82 108 114 147 186 197 153 111 117 122 106 92 107 104 82 80 82 84 76 66 70 72 76 79 88 91 106 107 105 102
25 13 -17 -30 -70 -74 -91 -87 -74 -72 -52 -33 -22 -15 -14 -23 1 0 3 10 40 75 103 115 129 135 143 144 133 133 109 94 98 100 108 91 65 47 53 54 71 79 69 69 76 72 69 63 63 65 71 82 91 96
15 0 -18 -39 -48 -51 -58 -35 -39 -18 -14 -4 1 -3 -8 13 27 47 47 65 86 105 127 143 138 137 144 129 115 114 110 81 71 93 97 85 89 80 74 73 66 74 72 63 68 74 75 72 78 82 76 79 81 72
1 7 -6 4 6 22 30 53 42 37 33 22 13 17 30 65 89 89 107 116 121 124 102 109 112 123 117 109 103 94 88 89 88 70 50 58 67 76 83 83 80 60 55 64 74 79 76 68 59 53 46 43 47 44
54 50 70 74 94 101 88 79 63 47 38 24 33 66 88 95 116 105 104 115 118 105 104 102 102 102 102 94 77 65 57 40 33 30 35 47 53 52 52 48 47 46 40 44 39 41 34 33 28 30 30 29 28 24
130 107 122 177 140 123 103 76 55 46 28 41 66 83 85 79 86 109 122 105 83 82 93 92 92 80 80 72 64 53 46 44 43 55 55 60 55 56 39 38 41 35 22 20 33 23 29 22 26 22 22 22 21 21
152 107 140 171 159 121 77 50 61 55 54 54 57 72 98 97 92 89 88 81 79 82 74 70 64 59 64 58 62 60 58 55 55 49 52 59 55 40 32 29 23 23 17 20 22 26 34 25 29 32 32 31 37 31
130 140 166 149 109 70 56 46 40 46 55 80 94 105 110 95 88 57 64 64 68 69 67 67 64 57 55 50 46 44 47 46 53 61 56 49 37 32 29 23 24 21 25 28 32 39 41 39 46 47 51 51 53 48
148 129 92 85 41 11 17 22 35 48 57 74 74 67 75 78 94 79 52 49 55 54 53 46 47 51 50 46 46 57 60 53 49 46 38 30 26 27 24 24 28 31 35 38 47 50 54 55 57 63 59 58 59 55
140 117 93 60 20 -1 1 16 32 55 61 67 62 59 71 82 87 70 39 25 35 42 47 43 50 52 56 54 53 50 38 47 50 42 41 29 22 20 18 28 35 42 46 51 56 62 62 62 63 64 58 58 55 54
Wind_Speed
30 12 32 54 27 54 38 16 20 97 110 114 124 113 125 107 119 99 89 84 82 69 57 55 54 61 69 90 102 76 86 73 77 77 81 76 74 76 71 61 54 55 59 63 65 72 76 35 27 28 38 60 47 37
21 14 10 18 7 50 52 60 70 82 110 120 124 125 125 120 96 87 69 72 71 57 52 39 32 40 57 75 85 81 90 76 71 72 72 73 72 64 68 72 57 65 55 58 57 61 51 38 42 46 64 61 47 48
11 18 22 26 47 16 53 64 69 90 106 109 106 116 113 107 80 72 56 59 68 65 56 51 50 39 47 50 53 87 82 66 80 73 59 65 69 58 65 74 60 62 53 74 73 68 63 58 59 64 60 60 58 47
37 31 42 47 42 19 35 59 73 76 82 82 76 95 78 75 75 50 61 61 48 35 45 44 37 49 46 68 56 64 76 82 61 66 66 68 71 61 67 66 71 69 52 66 79 76 71 73 67 65 64 57 53 44
41 43 54 58 63 53 54 55 52 75 92 102 79 67 58 57 52 52 46 50 52 44 44 40 32 49 45 62 68 68 69 73 69 69 75 83 72 71 67 73 83 76 77 76 78 66 74 75 63 61 61 48 41 36
25 30 42 32 60 76 79 81 71 80 60 88 90 67 63 57 46 47 47 44 30 34 38 35 44 59 58 48 70 74 68 71 72 77 75 71 63 64 70 84 76 78 77 82 80 70 77 73 57 55 58 52 41 36
29 33 37 39 45 46 50 50 50 57 58 59 56 51 45 39 53 46 51 44 33 29 31 37 43 48 56 57 60 68 72 66 60 67 71 73 74 69 83 93 69 63 64 68 66 63 71 64 67 60 58 53 45 38
24 28 32 37 38 39 40 41 45 48 51 54 48 39 30 23 22 31 20 8 20 22 31 37 45 47 49 57 67 63 76 69 64 65 57 60 58 61 78 78 85 88 82 76 69 53 61 58 50 50 50 46 46 43
19 22 26 31 35 39 41 45 48 47 44 38 33 26 27 34 36 29 13 12 30 30 32 57 52 48 61 52 51 46 47 68 53 72 74 57 63 66 62 64 62 62 64 72 63 57 51 53 57 53 50 48 45 43
24 25 26 27 29 31 33 37 48 47 49 51 23 35 26 31 21 11 17 20 14 35 53 56 47 44 40 60 37 35 35 51 63 61 48 72 75 56 60 62 60 60 60 58 57 59 61 62 57 53 49 43 44 40
28 26 32 30 30 32 30 41 47 54 53 37 33 23 7 11 21 22 12 14 18 45 58 57 57 47 37 39 32 24 30 37 51 48 55 55 55 64 67 66 63 60 57 56 53 58 58 56 55 48 48 45 38 33
54 45 37 37 31 49 81 79 70 29 29 31 6 11 15 24 18 18 15 20 41 51 47 53 49 48 43 42 43 25 28 29 41 29 39 47 49 58 62 63 61 59 59 56 53 51 52 50 47 41 40 40 36 33
49 48 61 81 83 80 33 10 4 10 25 41 39 21 23 24 28 37 43 42 42 38 43 44 40 33 27 28 32 31 28 27 19 28 35 35 49 55 56 52 46 45 43 44 45 46 44 43 40 39 38 34 29 25
33 38 55 75 63 44 31 26 18 21 35 38 40 48 39 40 34 35 40 41 37 37 42 46 42 35 37 31 31 29 28 29 33 33 32 42 51 52 49 45 39 37 33 32 33 32 32 32 30 29 25 22 19 18
43 30 29 39 36 42 36 40 35 32 32 33 33 41 36 30 32 39 40 44 41 43 48 43 37 38 40 36 27 25 29 32 34 35 39 46 47 45 43 40 36 32 30 29 28 27 27 27 26 26 25 22 20 18
70 55 51 56 54 49 49 41 27 28 31 27 23 26 21 37 32 31 37 42 40 46 48 45 40 38 38 33 27 30 31 32 32 38 42 45 42 41 39 37 35 32 31 30 30 29 29 27 27 28 28 27 25 23
52 52 56 52 44 35 27 30 28 29 30 30 32 16 20 29 30 30 34 38 41 46 42 36 34 36 34 37 33 31 28 30 34 34 37 39 38 37 35 33 32 32 32 32 31 30 30 29 29 29 29 29 29 28
46 62 58 54 42 28 27 34 44 41 42 29 35 25 23 19 15 19 25 25 40 44 38 37 30 31 29 29 25 27 28 30 30 33 34 35 34 33 34 32 32 33 33 33 33 32 32 32 32 31 31 30 30 31
58 56 47 34 32 37 40 36 38 46 43 43 30 29 29 20 6 6 8 8 6 9 15 19 20 20 21 24 27 28 29 32 27 30 32 34 34 33 33 33 34 35 35 35 34 34 35 35 34 34 34 34 35 37
44 46 36 39 38 45 44 36 39 41 36 42 41 12 24 18 17 20 18 16 15 18 18 18 19 23 24 28 30 29 31 28 26 27 30 33 35 35 36 35 35 35 35 37 38 37 37 38 40 40 40 41 41 45
5 25 21 34 48 50 48 48 46 45 51 17 19 27 25 29 37 34 35 38 37 27 28 31 31 33 35 35 35 35 34 32 31 30 29 31 35 35 36 37 37 37 37 38 38 40 41 42 43 44 45 47 48 50
9 16 16 9 39 44 45 26 44 46 45 46 39 35 35 37 39 43 46 46 44 44 39 37 36 36 37 38 39 38 37 35 35 34 34 34 35 37 38 39 39 40 41 42 42 44 45 47 48 49 50 51 52 55
7 11 22 24 38 38 38 24 37 35 39 39 41 41 43 44 45 44 43 47 45 46 44 42 41 40 39 40 40 41 40 38 37 37 37 37 37 38 39 41 42 43 44 46 46 47 49 50 52 53 55 56 57 60
14 17 24 27 31 31 30 31 33 35 37 39 40 41 42 43 44 43 42 42 42 43 43 42 39 39 40 42 43 44 43 40 39 40 40 40 40 41 42 43 44 46 47 47 48 51 52 54 55 57 59 60 61 62
18 24 24 27 29 28 30 32 34 36 37 39 39 41 41 42 43 43 41 39 41 42 42 41 41 40 40 40 41 42 43 41 40 41 44 44 41 40 41 43 46 49 50 50 53 53 55 56 57 58 59 61 63 63
20 28 24 24 26 28 30 30 33 35 36 39 41 40 40 42 44 44 40 37 38 39 40 41 39 39 40 41 39 41 43 41 39 40 44 45 46 45 46 47 48 51 53 53 54 55 56 57 58 58 58 58 59 59
21 24 26 28 27 28 30 33 35 37 39 41 41 41 42 46 45 41 35 37 35 36 36 39 38 36 36 36 37 38 39 41 40 39 40 43 45 46 46 47 48 50 51 52 52 53 54 54 54 54 54 54 55 57
22 23 21 26 29 33 31 35 38 40 40 41 40 44 45 46 43 38 33 33 33 32 34 35 35 34 34 34 35 36 38 38 38 38 38 40 43 45 45 45 46 47 47 48 49 49 49 49 50 51 52 54 55 55
20 22 25 28 30 35 39 39 38 38 41 41 41 42 42 40 38 32 31 31 30 31 32 32 32 31 32 34 37 39 41 41 39 40 41 41 42 46 47 46 45 45 45 44 44 46 47 48 48 50 51 52 53 53
21 26 25 30 33 36 38 39 37 39 43 42 39 38 40 37 36 32 30 29 30 31 29 28 27 28 30 31 34 38 41 41 41 40 40 41 42 43 43 43 43 43 43 43 43 43 45 45 46 46 50 51 53 54
22 25 27 30 31 33 34 36 37 40 42 44 45 41 40 35 33 32 31 31 29 28 26 26 28 29 31 34 35 34 36 38 39 39 38 38 39 40 40 40 40 39 40 41 41 42 44 45 46 47 49 50 50 51
25 26 24 27 29 28 34 35 38 40 40 42 42 40 38 37 37 29 27 26 26 25 27 27 27 29 32 33 34 36 36 34 32 33 35 37 39 37 36 36 36 36 37 37 38 39 41 42 43 44 45 46 48 48
23 27 29 31 31 32 32 35 40 41 41 41 42 40 40 39 38 31 25 24 27 27 26 26 30 30 29 31 32 31 31 32 32 32 34 36 35 35 33 34 35 35 35 35 36 37 38 40 41 42 43 45 46 47
Wind_Direction
294 330 357 347 300 279 301 166 177 185 191 197 190 191 192 200 198 203 212 213 216 227 240 247 246 242 234 224 223 227 222 230 230 233 235 239 244 242 246 250 238 247 251 251 256 258 258 278 275 263 286 280 292 298
259 155 121 256 152 36 107 164 174 179 175 175 180 182 184 190 193 200 205 212 218 231 237 254 264 248 238 232 225 228 226 227 232 234 238 241 244 248 247 247 249 248 252 256 258 268 272 275 273 279 276 285 294 294
164 132 110 117 75 145 158 161 167 165 165 173 181 179 186 164 186 201 204 202 214 227 243 249 248 251 244 243 249 226 227 233 232 237 242 243 243 248 248 247 253 256 267 255 262 266 272 277 276 277 282 283 290 295
63 116 101 113 133 152 146 154 161 167 170 173 175 179 176 174 191 196 196 204 212 228 240 244 256 243 243 234 246 237 234 233 243 236 239 241 243 251 253 258 255 255 264 264 263 267 274 272 277 279 284 286 292 300
9 105 112 116 135 156 153 156 158 161 160 159 133 137 149 163 179 190 201 218 223 234 245 253 268 243 241 235 241 240 237 235 233 234 240 240 248 253 260 259 255 255 259 263 268 280 271 273 275 278 282 289 295 294
41 58 52 70 129 137 143 151 156 157 124 126 132 168 169 167 162 183 206 221 229 240 261 271 265 245 237 239 235 234 235 236 237 236 242 247 252 251 256 255 261 261 262 260 267 276 272 274 282 279 280 288 292 295
42 55 62 76 86 94 102 111 124 138 140 142 145 155 157 166 196 208 211 225 231 253 276 274 263 251 236 236 230 233 231 235 240 239 245 247 249 254 255 255 266 271 273 273 279 281 277 282 280 283 283 285 290 291
55 66 77 80 89 98 113 119 126 125 122 122 131 147 155 153 189 223 262 250 241 273 261 248 242 243 230 229 230 232 230 234 241 243 249 248 251 257 257 263 262 262 267 272 280 286 285 289 293 292 291 289 286 285
84 82 95 98 105 107 109 103 105 113 119 123 127 137 184 207 218 234 268 259 256 262 246 212 204 209 196 225 226 221 228 230 247 242 242 253 250 254 267 268 272 279 279 277 281 286 289 288 287 290 292 290 288 287
129 123 119 118 124 127 128 106 98 101 102 104 121 202 218 217 88 56 270 287 303 244 217 216 226 218 223 208 218 216 232 229 234 243 250 248 251 262 278 283 287 288 289 291 290 289 290 287 287 287 291 291 291 288
147 136 138 132 132 140 111 96 95 98 121 195 208 229 195 170 225 254 342 0 266 216 212 214 210 217 238 215 200 231 231 236 239 247 246 253 256 272 283 284 288 290 293 295 295 293 296 297 294 290 289 290 293 292
147 149 142 141 131 87 103 104 116 181 196 202 192 107 214 242 277 295 298 276 212 203 209 210 214 209 200 207 212 234 242 245 245 257 252 256 274 290 292 290 290 292 294 295 297 298 301 301 298 298 298 296 295 296
151 154 147 124 107 122 159 172 232 216 193 172 183 244 254 267 247 225 210 211 212 218 219 223 227 231 243 234 238 232 246 251 265 264 265 282 298 302 304 306 309 310 307 306 304 303 307 308 308 304 303 305 304 302
152 153 153 131 143 156 161 160 165 185 164 160 160 161 179 191 213 211 204 204 224 231 219 217 225 249 246 252 255 251 259 265 261 267 281 299 305 307 311 321 322 321 325 325 322 324 330 333 333 331 328 325 323 320
155 150 154 161 162 149 158 152 144 154 166 163 161 145 157 200 221 219 222 211 210 207 203 210 227 223 221 238 258 262 263 264 270 273 288 292 299 307 323 337 344 341 343 346 351 350 353 359 1 5 8 17 26 32
151 158 159 148 134 125 110 123 161 160 170 179 167 168 187 165 195 210 204 199 201 198 200 209 213 213 217 232 259 268 269 274 283 294 301 311 324 339 347 350 357 2 4 4 7 8 12 17 24 29 27 27 28 26
150 147 148 143 144 144 149 149 154 149 150 153 151 176 179 166 172 197 209 210 212 204 209 218 225 228 233 231 246 272 280 286 301 309 312 325 333 340 351 359 4 9 13 13 15 16 20 23 25 24 21 19 21 17
156 137 137 135 144 149 129 130 129 130 128 133 139 150 150 166 208 224 204 216 199 199 210 215 248 250 258 263 280 283 301 321 335 338 339 340 345 352 358 5 8 12 17 17 18 19 18 17 15 14 15 11 6 360
134 140 158 173 164 137 137 134 131 125 125 125 123 136 142 148 169 226 239 229 335 305 277 289 291 276 286 314 315 324 324 326 342 346 354 356 358 3 9 12 14 14 15 13 12 10 8 5 3 3 357 350 346 345
87 146 172 165 162 132 130 139 131 131 137 123 126 16 18 12 2 6 1 348 325 310 326 326 326 332 333 333 335 335 331 343 352 353 354 359 5 8 7 7 6 8 9 8 6 4 3 1 359 356 354 351 346 342
16 200 204 172 118 102 102 109 116 122 109 171 168 11 6 10 17 17 19 21 23 3 10 15 14 9 9 6 5 6 5 5 2 2 359 359 359 2 2 1 1 1 360 357 354 354 353 350 347 347 346 344 342 340
251 225 2 280 59 65 59 358 62 72 58 56 28 17 14 12 11 12 19 23 24 19 18 16 14 15 14 11 11 13 14 16 14 11 6 2 354 352 352 353 353 350 349 348 348 343 344 343 342 342 340 339 340 339
310 326 11 7 50 46 49 350 36 18 40 36 31 25 18 21 18 21 22 21 25 17 21 23 22 21 18 16 14 12 9 7 1 359 357 354 355 353 350 349 348 342 340 341 344 342 339 341 341 339 339 338 337 334
306 337 1 12 19 33 24 19 17 22 24 23 21 18 13 12 14 16 15 14 13 12 11 9 9 8 7 4 360 357 358 3 356 356 357 349 347 347 347 345 348 346 343 342 342 338 339 337 339 337 336 335 335 334
344 341 354 13 11 21 17 17 15 19 21 18 19 16 14 14 11 10 9 11 11 9 11 12 9 7 4 2 1 0 2 358 354 352 350 348 345 345 345 347 347 347 343 339 338 337 337 336 336 336 337 337 336 337
348 344 349 355 4 7 7 10 8 10 10 8 8 11 13 7 3 1 5 12 11 11 9 7 5 3 1 358 355 353 352 354 353 352 350 349 346 342 340 338 337 340 344 343 339 338 338 338 339 339 340 342 343 344
346 348 355 353 11 20 18 15 13 8 6 3 4 4 4 358 358 6 14 11 12 13 13 9 6 3 360 359 359 357 358 357 355 354 353 352 351 350 347 344 342 342 346 346 346 345 345 345 347 348 348 350 351 351
349 353 2 8 16 10 11 5 1 0 2 3 5 1 358 357 359 8 12 19 25 25 20 16 12 8 6 3 359 355 352 352 353 354 356 357 356 354 353 353 353 352 353 354 352 355 355 355 355 355 356 354 354 355
2 13 20 9 8 3 359 -0 2 8 8 7 5 4 4 10 15 23 26 27 31 22 18 17 18 19 17 14 7 0 354 351 350 349 348 349 350 351 352 354 356 358 1 1 7 5 4 3 3 2 1 0 360 360
355 357 6 1 1 359 1 7 18 18 15 16 20 24 25 23 23 33 34 29 23 19 23 27 27 24 20 17 11 5 0 358 355 354 354 353 353 355 358 0 2 4 8 10 11 13 12 12 11 10 7 6 4 3
1 4 5 5 8 16 24 27 29 24 18 18 20 19 18 22 26 30 29 26 28 33 32 27 20 17 13 7 5 6 4 3 3 2 5 7 5 4 7 12 14 19 20 20 20 18 15 14 11 9 8 7 7 7
356 357 9 7 11 23 17 16 14 11 13 10 12 19 20 18 11 27 30 34 33 31 22 20 19 14 10 10 8 7 5 15 26 26 22 16 13 20 26 27 27 27 24 24 23 21 19 16 14 12 10 8 7 6
19 22 23 13 9 8 15 13 6 6 8 8 8 12 11 11 11 21 40 43 30 29 30 27 19 20 21 18 19 28 32 26 28 31 27 23 28 30 34 29 28 28 27 25 23 22 19 16 14 11 10 8 6 5